This is the latest recevied weather packets stored in our database for station/object ZS1DFR-1. If no packets are shown the sender has not sent any weather packets the latest 10 day(s).
| Time | Temp. | Humidity | Pressure | Rain* | Wind** | Luminosity | Snow |
|---|---|---|---|---|---|---|---|
| 1777578805 | 14.44° C | 78% | 1015.4 hPa | 0 mm | - | - | - |
| 1777577905 | 14.44° C | 78% | 1015.4 hPa | 0 mm | - | - | - |
| 1777577005 | 14.44° C | 76% | 1015.3 hPa | 0 mm | - | - | - |
| 1777576105 | 14.44° C | 76% | 1015.3 hPa | 0 mm | - | - | - |
| 1777575205 | 15.56° C | 74% | 1015.2 hPa | 0 mm | - | - | - |
| 1777574305 | 15.56° C | 74% | 1015.2 hPa | 0 mm | - | - | - |
| 1777573405 | 15.56° C | 73% | 1015 hPa | 0 mm | - | - | - |
| 1777572505 | 15.56° C | 73% | 1015 hPa | 0 mm | - | - | - |
| 1777571605 | 16.11° C | 73% | 1014.5 hPa | 0 mm | - | - | - |
| 1777570705 | 16.11° C | 73% | 1014.5 hPa | 0 mm | - | - | - |
| 1777569805 | 16.67° C | 72% | 1014.4 hPa | 0 mm | - | - | - |
| 1777568905 | 16.67° C | 72% | 1014.4 hPa | 0 mm | - | - | - |
| 1777568005 | 16.67° C | 74% | 1013.7 hPa | 0 mm | - | - | - |
| 1777567105 | 16.67° C | 74% | 1013.7 hPa | 0 mm | - | - | - |
| 1777566205 | 17.22° C | 72% | 1013.5 hPa | 0 mm | - | - | - |
| 1777565305 | 17.22° C | 72% | 1013.5 hPa | 0 mm | - | - | - |
| 1777564405 | 17.78° C | 70% | 1013.5 hPa | 0 mm | - | - | - |
| 1777563505 | 17.78° C | 70% | 1013.5 hPa | 0 mm | - | - | - |
| 1777562605 | 18.33° C | 69% | 1013.2 hPa | 0 mm | - | - | - |
| 1777561705 | 18.33° C | 69% | 1013.2 hPa | 0 mm | - | - | - |
| 1777560805 | 18.89° C | 70% | 1013.2 hPa | 0 mm | - | - | - |
| 1777559905 | 18.89° C | 70% | 1013.2 hPa | 0 mm | - | - | - |
| 1777559005 | 18.89° C | 68% | 1012.9 hPa | 0 mm | - | - | - |
| 1777558105 | 18.89° C | 68% | 1012.9 hPa | 0 mm | - | - | - |
| 1777557205 | 19.44° C | 67% | 1012.9 hPa | 0 mm | - | - | - |
* Rain latest hour (hover to see other rain measurements)
** Current wind speed in m/s (hover to see current wind gust speed)